Regional Weather Roundup
Issued by NWS Northern Indiana

Home | Current Version | Previous Version | Graphics & Text | Print | Product List | Glossary On
Versions: 1 2 3 4 5 6 7 8 9 10 11 12 13 14 15 16 17 18 19 20 21 22 23 24 25 26 27 28 29 30 31 32 33 34 35 36 37 38 39 40 41 42 43 44 45 46 47 48 49 50
940
ASUS43 KIWX 110200
RWRIWX

KIWX WEATHER ROUNDUP
NATIONAL WEATHER SERVICE NORTHERN INDIANA
900 PM EST SAT DEC 10 2016

NOTE: "FAIR" INDICATES FEW OR NO CLOUDS BELOW 12,000 FEET WITH NO
SIGNIFICANT WEATHER AND/OR OBSTRUCTIONS TO VISIBILITY.

* THESE STATIONS ARE NOT UNDER NWS QUALITY CONTROL. THEY ALSO MAY NOT
  REPORT WEATHER SUCH AS PRECIPITATION OR FOG.

INZ001>027-110300-
NORTHERN INDIANA

CITY           SKY/WX    TMP DP  RH WIND       PRES   REMARKS
GARY*          LGT SNOW  23  21  93 S3        30.38F VSB 1
VALPARAISO     LGT SNOW  24  20  84 S6        30.38F FOG     WCI  17
LAPORTE*       LGT SNOW  22  20  92 S3        30.38F
KNOX*          CLOUDY    23  10  58 S3        30.39F
SOUTH BEND     LGT SNOW  22  18  85 S6        30.39F FOG     WCI  14
GOSHEN         FLURRIES  25  15  66 SW9       30.39F WCI  15
MONTICELLO*    LGT SNOW  24  19  81 SE3       30.38F
WARSAW*        LGT SNOW  25  18  74 S3        30.40S
ANGOLA*        PTCLDY    23  18  80 S7        30.38F WCI  15
FORT WAYNE     LGT SNOW  25  18  74 SW6       30.42S WCI  18
PERU/GRISSOM   LGT SNOW  24  23  96 S3        30.38F FOG

$$
INZ028>050-110300-
CENTRAL INDIANA

CITY           SKY/WX    TMP DP  RH WIND       PRES   REMARKS
LAFAYETTE      LGT SNOW  24  23  96 SE3       30.38F FOG
KOKOMO*        LGT SNOW  24  22  91 MISG      30.40F FOG
MUNCIE*        LGT SNOW  26  22  84 S3        30.40F FOG
INDIANAPOLIS   CLOUDY    28  17  63 S8        30.38F WCI  20

$$
MIZ043>046-050>051-056>058-064>065-071>073-077>080-110300-
SOUTHWEST LOWER MICHIGAN

CITY           SKY/WX    TMP DP  RH WIND       PRES   REMARKS
BATTLE CREEK   CLOUDY    22  16  78 S8        30.36F WCI  12
BENTON HARBOR  CLOUDY    24  17  74 S8        30.38F HAZE    WCI  15
COLDWATER*     CLOUDY    23  15  73 S3        30.37F
HILLSDALE*     CLOUDY    21  16  79 S5        30.36F WCI  15
HOLLAND        LGT SNOW  23  20  88 S10       30.36S FOG     WCI  12
GRAND RAPIDS   LGT SNOW  23  19  85 S7        30.36F FOG     WCI  15
KALAMAZOO      CLOUDY    23  14  68 SW9       30.37F WCI  13
STURGIS*       CLOUDY    23  16  74 S6        30.37F WCI  16
THREE RIVERS*  CLOUDY    23  16  74 S6        30.38F WCI  16

$$
OHZ001>008-015>018-024>025-110300-
NORTHWEST OHIO

CITY           SKY/WX    TMP DP  RH WIND       PRES   REMARKS
DEFIANCE       CLOUDY    26  16  65 S3        30.42F
FINDLAY        CLOUDY    26  16  65 SW5       30.41F WCI  20
TOLEDO EXPRESS CLOUDY    24  16  71 SW3       30.41F
TOLEDO METCALF CLOUDY    25  17  72 SW6       30.43F WCI  18
LIMA           CLOUDY    24  17  74 S3        30.41F

$$
AND FOR LAKE MICHIGAN COASTAL AND OPEN LAKE BUOY OBSERVATIONS

STATION/POSITION TEMP    WIND        PRES    VSBY  WAVE
                 AIR SEA DIR/SP/G                  HT/PER
                 (F)     (DEG/KT/KT) (MB)    (MI)  (FT/S)
CALUMET HARBOR    22     170/  4/  8 1028.2F
BURNS HARBOR      23     180/  6/  8 1029.8S
SAINT JOSEPH      24     190/  6/ 10 1029.8

$$
&&




USA.gov is the U.S. government's official web portal to all federal, state and local government web resources and services.